Wind_Speed
8 6 6 6 5 6 6 5 4 2 4 4 4 4 2 2 2 1 3 2 2 2 1 4 6 7 7 7 6 8 8 6 7 2 0 4 7 12 15 21 26 24 24 25 24 25 24 25 27 27 27 27 27 27 26 27 28 28 28 27 26 25 25 24 24 23 22 22 20 20 20 19 17 17 18 19 19 17 17 18 17 18 19 20 19 19 20 20 19 19 18 16 16 15 16 16 17
6 6 6 6 6 7 4 3 5 3 4 5 4 3 3 3 2 4 1 1 2 3 5 8 9 8 7 8 8 9 4 4 7 6 4 8 12 11 16 24 26 24 24 24 24 24 24 24 27 27 27 29 28 28 28 27 28 28 28 27 26 26 24 23 22 21 21 21 21 21 19 18 17 17 19 19 19 18 18 19 18 19 20 20 19 19 19 19 18 18 17 15 15 14 15 14 14
6 7 7 8 7 6 2 3 6 3 4 4 2 3 2 2 2 1 2 4 5 7 9 9 10 6 7 8 5 5 0 4 6 8 6 11 12 12 20 24 25 25 24 24 23 24 23 24 28 27 27 29 28 28 28 27 27 27 27 27 26 25 24 22 22 21 19 20 21 20 18 18 18 18 20 20 19 19 20 20 19 19 20 20 19 19 19 18 18 17 16 15 14 14 13 12 13
7 7 8 8 6 4 4 4 4 4 5 4 0 5 2 1 3 4 4 6 7 9 9 8 6 0 5 6 1 3 1 4 5 6 6 10 11 17 22 24 24 24 23 23 23 23 22 25 29 27 26 28 28 27 27 27 26 26 26 26 25 25 24 23 22 20 19 20 21 20 19 20 20 21 22 21 19 18 20 20 19 19 19 19 18 18 17 17 16 15 14 13 13 12 11 11 12
7 7 8 8 4 2 4 3 3 5 4 3 0 5 3 2 5 6 6 8 8 9 7 6 4 2 2 3 4 3 2 4 4 5 8 11 15 21 23 23 23 22 23 22 23 23 22 26 29 27 27 27 27 26 26 25 25 25 25 25 25 25 24 23 21 19 19 19 20 20 21 21 21 21 22 22 20 19 20 19 18 19 19 18 18 17 16 16 15 14 13 12 12 11 11 10 11
7 8 7 7 3 1 4 4 4 6 3 3 3 3 2 3 7 8 8 9 7 7 6 5 4 2 2 3 4 4 3 1 4 7 9 14 18 21 22 22 21 22 23 22 22 22 23 28 29 28 27 27 26 25 25 24 25 25 25 25 24 25 24 22 20 19 19 20 20 21 22 22 21 20 22 23 22 20 20 18 18 18 18 17 17 17 16 15 14 13 12 12 11 11 10 10 10
7 8 6 6 2 2 6 5 5 5 2 2 5 4 5 7 8 9 9 8 4 4 5 4 4 4 2 5 4 6 3 1 4 8 12 17 19 20 21 21 21 21 22 22 21 22 24 28 29 29 28 28 27 25 24 24 24 24 24 24 24 24 23 21 21 21 21 21 21 22 23 23 22 21 21 23 22 21 20 19 19 18 17 16 16 16 15 15 14 13 12 11 11 11 10 10 10
8 5 3 5 3 4 6 5 5 3 2 3 4 5 7 8 8 9 9 7 4 3 6 5 5 6 3 5 2 6 4 3 6 12 16 19 21 21 20 21 21 21 21 21 21 23 25 27 28 27 28 28 27 26 25 24 24 24 23 24 23 23 23 23 22 21 21 20 20 21 22 23 23 21 20 21 22 20 20 19 18 17 16 16 16 16 15 15 14 12 12 12 11 11 11 11 12
8 5 2 5 4 4 5 5 4 3 1 2 2 4 5 7 8 9 9 7 6 5 7 6 6 6 6 6 3 7 6 7 11 16 19 20 21 20 20 20 21 22 22 21 21 23 24 26 27 26 27 27 26 25 24 24 24 23 23 23 23 22 23 23 21 20 18 18 18 19 22 23 22 20 19 19 20 20 20 19 17 17 16 16 16 16 15 13 13 13 12 12 11 10 11 13 13
6 4 3 4 4 4 5 5 3 1 1 1 2 3 4 7 8 8 9 8 6 6 6 5 7 6 5 7 6 6 5 10 16 18 19 20 20 19 20 20 21 22 22 21 22 23 23 25 26 26 26 25 25 24 24 23 22 22 22 22 23 23 22 22 20 18 17 17 18 19 22 21 20 20 18 18 18 18 19 19 17 16 15 15 15 14 14 12 13 13 12 11 10 10 12 13 14
5 3 4 4 5 5 5 4 3 2 2 0 1 2 5 8 8 8 9 7 5 5 5 5 8 8 6 6 5 5 8 12 17 19 19 20 20 19 19 20 20 21 22 22 23 23 23 24 24 25 24 24 24 24 23 21 20 21 21 23 24 24 22 21 20 19 18 18 18 19 20 20 19 19 17 16 17 17 17 18 16 15 15 15 15 13 13 13 14 13 11 10 9 9 12 13 14
4 4 4 5 5 4 3 3 1 0 1 3 4 4 6 7 7 9 9 7 3 4 6 7 5 7 8 6 5 7 10 13 16 19 20 19 19 18 18 19 19 20 21 23 23 23 24 23 22 23 23 24 24 23 22 20 20 20 21 25 25 23 21 20 20 19 19 18 17 19 19 19 18 17 16 15 15 15 17 17 16 15 15 14 14 13 13 13 13 12 10 9 9 9 11 13 13
5 4 5 5 4 4 4 3 1 2 3 4 5 5 7 6 9 10 9 7 2 2 5 6 3 6 7 6 5 7 10 13 17 19 19 18 18 18 17 18 18 19 21 22 22 23 23 22 22 22 22 23 23 22 21 20 20 20 22 24 24 21 19 19 19 19 19 18 18 18 18 17 16 15 15 14 13 14 16 16 15 14 13 13 13 13 13 13 12 11 9 9 9 9 11 13 12
4 3 5 4 3 5 5 4 2 3 3 7 5 7 7 5 9 9 9 6 1 1 0 3 4 6 5 5 6 7 10 15 18 19 19 18 17 17 16 17 18 19 20 21 22 24 24 22 23 23 21 22 22 21 20 20 19 20 22 23 22 20 19 18 18 19 19 18 18 19 17 15 14 14 14 13 13 13 14 15 14 14 13 13 13 12 12 12 12 10 9 8 8 8 10 12 12
4 2 5 5 4 6 5 4 2 3 3 7 4 8 7 4 7 8 10 7 2 3 1 4 4 3 4 5 5 9 15 18 20 19 18 17 17 17 16 17 18 19 20 21 22 23 24 23 23 23 23 22 21 20 20 20 19 20 21 22 21 20 19 17 18 18 18 18 19 17 16 15 14 14 14 14 13 13 13 13 14 14 13 12 12 12 12 12 12 10 9 9 8 7 9 11 12
4 3 4 5 6 6 4 4 3 3 3 5 4 8 8 6 7 7 8 6 2 2 3 4 3 1 1 4 4 15 21 21 21 19 19 18 17 17 17 17 17 19 19 20 21 22 23 23 24 24 24 23 21 19 19 20 19 19 20 21 21 20 18 17 18 17 18 19 18 17 15 15 14 15 15 14 14 13 13 12 12 13 13 12 12 12 11 12 11 10 10 10 9 8 7 9 11
4 4 6 5 7 6 3 4 2 1 3 4 6 9 8 8 7 6 4 5 2 1 3 2 3 1 4 2 9 21 24 22 22 20 20 19 18 17 18 18 17 18 19 19 21 22 22 23 23 22 22 22 19 17 18 19 18 18 18 19 20 19 17 18 18 18 18 17 17 17 15 14 14 15 15 14 15 14 13 12 12 13 12 12 12 12 12 12 12 10 10 9 10 9 8 7 9
5 5 6 6 6 3 2 0 2 3 3 6 8 8 9 9 8 8 5 3 1 2 4 4 4 2 3 5 14 22 23 23 23 21 21 19 18 17 18 18 18 18 18 19 20 21 22 22 21 20 20 20 18 17 16 18 19 17 17 18 18 17 17 18 18 18 17 17 17 16 15 14 13 14 15 15 14 14 13 12 12 12 12 12 12 12 11 11 12 10 10 9 9 10 9 6 7
7 5 6 7 2 3 4 3 4 4 6 8 8 8 9 9 8 8 7 4 2 4 6 6 6 5 4 7 14 20 22 22 22 22 21 19 18 18 18 18 19 18 18 19 20 21 22 21 20 19 20 19 18 17 15 17 18 18 18 18 17 16 16 17 17 17 16 17 18 16 16 15 13 13 15 16 15 14 13 11 12 11 11 11 10 10 10 10 11 10 9 9 9 10 9 7 7
7 5 7 4 1 3 2 1 2 4 7 8 9 9 9 7 7 7 9 9 4 4 5 6 8 7 8 9 14 19 20 21 21 21 21 20 19 19 19 18 19 19 18 19 19 21 21 20 20 19 20 20 18 17 16 17 17 17 18 17 17 17 16 14 16 17 16 16 17 18 19 17 14 14 15 16 15 14 12 11 11 10 9 9 9 8 8 8 8 9 9 9 9 8 8 8 7
5 6 7 1 2 2 2 1 3 5 7 8 9 10 9 7 7 8 9 9 2 3 1 3 6 9 11 11 14 18 18 19 20 20 20 20 20 19 18 18 18 18 19 19 19 21 21 20 20 20 20 20 18 17 16 16 17 17 16 17 19 19 17 15 16 16 15 16 17 19 19 16 15 16 15 15 14 12 12 11 10 8 8 8 8 7 7 8 7 9 10 9 8 7 7 7 7
4 7 8 1 1 3 1 1 4 6 7 8 9 10 9 9 9 8 8 8 3 4 2 2 4 8 12 13 14 16 16 17 18 19 19 19 19 19 18 17 17 18 19 19 19 21 21 21 21 21 20 19 18 17 16 16 17 15 15 17 18 18 18 16 14 15 15 15 17 20 19 16 14 14 13 12 11 11 11 10 8 8 8 7 7 6 7 8 8 9 9 9 8 8 7 7 7
6 7 7 5 6 6 4 5 7 7 9 8 9 9 9 11 10 7 8 9 6 4 3 3 3 7 12 13 14 15 17 17 17 18 19 18 19 18 17 16 17 18 19 19 19 21 21 21 22 22 21 20 18 17 16 15 16 14 15 17 15 14 14 12 11 13 14 15 18 19 17 14 13 12 10 10 10 10 10 8 7 7 7 7 7 7 7 7 7 7 8 8 8 8 8 7 7
9 6 5 7 7 8 8 8 8 8 10 9 10 10 10 12 10 8 10 10 7 5 4 5 4 8 12 13 14 15 16 16 16 17 18 17 17 16 15 16 17 19 18 19 19 20 21 22 21 21 21 20 18 17 16 14 15 15 14 15 14 12 12 10 9 10 13 16 18 17 14 13 12 11 10 10 10 10 9 8 7 6 6 6 7 6 6 6 6 6 6 7 7 7 8 8 7
11 9 4 6 6 7 8 8 9 9 9 8 9 11 10 10 9 11 13 8 4 4 4 5 6 9 12 12 13 14 14 14 14 15 15 15 15 14 14 16 17 18 18 18 18 19 21 20 20 21 20 20 19 17 15 15 15 14 14 13 12 12 10 10 9 9 12 14 15 14 12 11 11 10 10 10 10 10 9 8 7 6 5 5 5 5 6 6 6 6 6 6 6 7 7 7 7
8 11 7 7 8 7 8 9 10 9 7 7 10 12 10 7 7 9 8 3 2 2 4 5 7 10 11 11 12 13 12 12 13 13 12 12 13 14 15 15 14 15 15 16 16 16 20 20 19 18 17 17 18 16 16 16 15 14 13 12 12 12 9 9 9 9 11 11 12 12 11 11 10 9 10 9 10 10 10 9 8 7 5 4 4 5 6 6 6 6 5 5 6 6 7 7 7
2 7 7 8 9 7 8 9 9 9 8 9 11 12 9 5 6 6 2 4 1 2 4 6 8 9 9 9 10 11 11 11 12 11 10 10 11 11 10 9 11 12 11 13 15 14 17 17 17 17 16 16 16 15 16 16 15 14 13 12 11 11 10 10 9 9 10 11 11 11 11 10 9 9 9 9 10 10 9 9 8 7 6 5 4 5 6 6 6 5 5 4 5 6 7 7 7
2 5 6 9 9 7 9 9 8 8 8 9 9 11 9 7 9 8 1 3 1 3 5 6 7 7 8 9 9 9 8 8 9 8 10 10 9 8 4 2 4 4 5 5 8 12 13 14 17 18 18 18 16 15 16 15 15 14 13 12 11 11 12 10 9 9 10 10 11 11 11 10 9 9 10 9 9 9 9 9 8 7 6 5 4 4 5 6 5 5 5 5 5 6 7 7 6
5 6 7 8 8 9 10 8 7 7 7 5 6 10 10 10 12 7 2 1 2 4 6 6 7 6 8 8 8 8 6 10 10 9 12 13 14 13 11 8 5 2 3 4 2 11 14 15 17 18 18 17 15 14 15 15 14 13 12 11 11 12 12 9 9 9 9 10 11 11 11 10 9 9 10 9 9 9 8 8 7 7 6 6 5 5 5 6 6 6 6 5 6 7 7 7 7
6 6 7 6 7 7 6 4 5 6 4 3 6 8 7 11 12 3 4 1 4 6 7 6 6 6 7 8 8 8 8 10 12 13 15 16 15 15 16 19 20 13 8 6 4 11 17 19 20 18 18 17 15 15 15 15 14 12 12 11 11 13 11 9 10 9 10 11 11 11 10 10 9 9 10 10 9 8 8 7 7 7 7 7 7 6 5 6 6 6 6 6 6 7 8 8 7
5 5 5 5 6 3 7 3 4 4 2 3 8 7 5 7 8 4 4 2 4 6 7 7 7 6 6 7 9 9 11 12 14 15 17 18 18 19 18 23 27 24 20 12 7 13 18 20 20 18 17 17 17 17 16 16 15 12 11 11 12 12 10 10 10 10 10 10 10 10 10 10 10 9 9 10 9 8 7 7 7 7 7 7 6 6 5 5 6 6 6 7 7 7 8 7 7
5 5 5 5 5 3 7 5 2 1 3 4 8 6 7 6 6 5 2 2 4 6 7 7 8 6 5 6 9 9 10 11 14 16 17 18 19 20 21 24 26 25 29 23 15 16 18 18 20 20 18 17 17 17 17 17 16 13 11 12 13 12 11 11 10 10 10 10 10 10 9 10 9 9 9 9 8 7 7 7 7 7 7 7 6 5 5 5 6 6 6 6 7 8 8 7 7
5 6 5 4 4 3 4 6 4 2 1 4 6 6 6 4 5 4 1 2 4 6 7 8 8 6 6 7 8 8 9 11 13 16 19 19 19 23 24 24 24 23 28 30 24 23 23 21 22 23 21 18 17 17 17 17 16 13 12 13 13 11 11 11 11 11 11 10 9 9 10 10 9 9 9 9 8 7 7 6 7 7 7 6 6 5 5 5 6 6 6 6 7 8 8 7 7
6 6 5 4 5 4 2 5 6 2 3 4 5 6 8 6 3 3 2 3 5 6 7 7 7 6 6 7 9 9 10 11 12 15 20 18 19 26 23 21 22 19 23 29 30 29 28 27 25 24 22 19 18 18 17 18 17 14 13 13 12 11 11 10 11 11 10 10 9 9 10 10 9 9 9 9 8 7 6 6 7 8 7 5 5 5 5 5 6 6 7 6 7 7 8 8 7
5 5 5 5 5 6 4 2 3 1 5 6 6 8 10 11 9 6 4 4 6 7 6 6 7 7 7 8 9 10 10 11 11 14 19 17 18 22 17 16 20 20 22 28 31 30 29 31 28 24 21 19 20 19 17 18 17 15 14 12 12 11 11 11 11 11 10 10 9 9 10 10 9 9 9 9 8 7 7 7 7 7 7 5 5 5 5 5 6 6 7 7 7 6 7 7 8
3 2 4 4 4 5 4 2 1 3 6 7 9 10 10 12 11 8 6 5 7 7 6 6 7 7 7 8 9 10 11 11 12 14 17 17 16 15 12 14 17 20 24 26 27 29 31 31 29 24 21 20 21 20 18 19 17 16 14 14 14 13 12 12 11 11 10 10 9 10 10 10 9 9 9 9 8 8 7 7 7 7 7 6 5 5 5 5 6 7 8 8 8 7 7 8 9
4 4 5 5 6 5 2 2 3 3 6 8 9 11 12 13 13 12 7 6 8 9 9 9 8 8 7 9 10 12 12 11 13 15 16 17 16 12 12 14 16 18 20 20 20 25 29 29 27 25 22 21 23 22 21 21 19 18 17 16 16 14 13 13 12 11 10 10 10 10 10 9 9 9 9 9 9 8 7 7 7 7 7 7 6 6 5 5 6 7 8 9 9 8 8 8 9
6 7 7 6 7 5 2 2 4 2 4 7 7 9 11 13 14 14 10 8 10 11 10 11 10 9 8 10 12 13 12 11 13 15 17 18 16 13 14 15 16 17 17 17 16 18 22 23 23 24 23 23 24 24 22 22 20 19 18 17 16 15 14 13 13 12 11 10 10 10 10 9 9 9 9 9 9 8 8 8 8 8 8 7 6 6 6 6 7 7 8 8 8 8 8 8 10
7 6 7 7 5 3 2 3 3 3 3 6 6 7 9 12 15 15 12 11 10 12 12 11 11 11 10 11 12 13 13 13 15 16 18 20 17 16 17 17 18 16 14 15 15 17 19 20 21 22 22 22 23 23 23 21 18 17 16 16 15 14 13 13 12 11 10 10 11 10 9 9 9 9 9 9 9 8 8 8 8 8 8 7 7 7 7 7 8 8 8 8 8 8 7 9 10
7 6 6 6 3 2 2 4 5 3 5 8 9 8 9 12 14 14 14 13 12 12 11 10 10 10 11 11 11 13 15 15 16 16 18 20 19 18 18 19 20 18 15 16 18 19 20 20 21 22 22 22 20 21 21 19 18 17 14 13 13 12 12 12 11 11 11 10 11 10 9 9 9 9 9 9 8 8 7 8 8 8 8 8 8 8 8 9 9 9 8 8 8 8 8 9 8
8 8 8 7 5 5 6 4 3 6 8 9 9 8 8 11 13 13 12 12 13 12 9 9 10 10 11 11 13 14 15 15 15 17 18 18 19 19 19 21 22 19 17 17 20 22 20 20 22 21 21 20 18 19 21 19 20 19 14 13 13 11 12 13 12 12 12 12 11 11 10 10 9 9 9 8 8 8 8 8 8 9 9 9 9 9 9 10 10 10 9 9 9 8 8 9 7
7 9 10 10 10 10 10 8 5 7 7 8 7 7 6 7 9 10 8 9 12 10 9 11 11 11 12 12 13 14 15 15 15 16 17 17 18 19 19 21 20 18 16 17 20 22 21 21 22 22 21 21 18 19 21 21 21 20 18 17 16 14 13 13 14 14 14 13 12 11 11 10 10 9 9 8 8 8 8 8 9 10 10 10 9 9 9 9 10 11 10 9 9 8 8 8 8
6 4 6 9 10 9 8 6 5 6 4 5 5 7 5 4 6 8 7 8 11 9 8 8 8 8 11 11 12 13 14 14 14 14 15 17 17 17 17 20 21 19 17 17 18 20 21 22 23 23 23 23 20 19 22 23 22 20 19 19 17 15 15 14 14 15 14 13 12 12 11 11 10 9 9 8 8 8 8 9 9 9 9 9 8 9 9 9 10 11 10 9 9 8 7 7 8
4 4 2 6 5 5 5 6 7 5 4 3 8 7 6 7 6 7 7 8 11 10 6 3 3 5 7 9 11 13 14 13 12 12 14 15 15 16 17 19 20 20 18 18 18 20 22 22 22 22 24 25 22 21 23 23 23 20 19 18 17 16 15 15 15 14 13 13 13 13 12 11 10 9 9 8 8 8 8 8 9 10 9 9 8 9 9 9 9 9 9 9 8 8 7 6 7
3 4 1 4 3 5 4 5 6 4 4 5 9 8 7 8 5 6 7 10 12 8 3 2 2 3 5 7 9 12 13 12 10 9 11 13 14 16 15 15 18 19 19 19 19 21 23 22 21 23 24 24 23 22 22 22 23 22 20 19 18 17 16 15 15 14 14 14 14 13 12 11 10 9 8 8 8 8 8 8 9 9 9 9 9 9 10 9 9 9 9 9 8 7 7 6 6
2 2 4 4 3 4 4 5 5 3 4 8 8 8 7 7 6 7 8 8 7 2 3 4 5 4 3 4 6 9 11 10 9 7 9 11 10 11 10 10 14 16 18 19 19 20 22 23 22 23 22 21 22 24 23 21 21 20 19 19 18 17 16 16 16 15 15 14 14 13 12 11 10 10 9 9 9 8 8 9 9 9 9 9 9 9 10 10 10 9 9 9 8 7 7 6 6
1 3 7 6 5 4 4 5 4 4 7 10 8 8 7 7 7 5 2 1 2 3 3 5 7 6 2 2 4 6 7 7 7 8 8 7 5 4 4 8 12 15 17 18 18 20 22 23 23 22 20 20 23 25 24 22 21 18 16 17 18 17 17 17 17 17 16 15 15 14 13 11 10 10 9 9 9 9 9 9 9 9 9 8 9 9 10 10 10 10 9 8 8 8 7 7 6
4 6 7 5 5 4 4 5 4 6 8 5 3 6 7 8 7 2 3 3 4 5 5 7 7 6 2 2 3 4 5 5 6 7 8 7 6 6 7 10 12 15 17 18 18 20 22 23 24 22 21 22 25 25 24 23 22 18 16 16 17 17 17 18 17 17 17 16 16 15 13 12 11 10 9 9 9 9 9 9 9 8 8 8 8 8 9 9 10 10 10 9 9 8 7 8 8
7 7 6 7 6 5 6 7 6 8 6 3 3 4 6 9 6 2 5 3 5 6 6 7 7 4 1 3 4 5 5 6 6 7 8 8 7 8 9 10 10 10 13 17 19 19 21 23 24 24 23 24 25 25 23 23 20 17 16 16 17 17 17 17 17 17 16 16 15 15 13 12 11 10 10 9 9 9 9 9 9 8 8 8 7 7 8 8 9 9 10 9 9 9 8 9 9
9 8 7 8 7 6 7 7 7 8 4 4 3 3 6 9 2 7 7 6 7 6 6 7 6 4 2 3 5 5 6 7 7 6 6 7 8 10 11 13 15 13 13 15 18 18 20 21 23 24 23 24 25 24 22 21 19 16 16 17 18 18 17 16 16 15 15 14 14 14 13 12 11 11 10 9 9 9 8 8 9 8 8 8 7 6 6 7 8 8 8 9 9 8 8 8 8
10 9 8 8 7 6 7 5 6 7 3 3 4 4 6 6 1 6 5 6 6 6 7 8 7 6 4 4 5 6 5 5 7 7 6 7 9 11 13 14 18 20 18 17 18 20 19 18 20 22 22 22 22 22 21 21 19 18 19 22 22 21 19 17 16 15 15 13 13 13 12 11 11 11 10 10 9 9 7 7 8 9 10 9 8 6 5 5 6 7 8 9 8 8 8 8 8
7 7 7 7 7 6 4 2 2 4 3 3 4 4 5 1 4 4 4 6 8 8 10 9 7 7 6 6 6 7 7 6 6 7 7 8 10 11 14 14 16 19 21 18 18 21 21 18 18 19 20 21 21 21 22 23 23 22 22 24 26 24 21 19 17 16 15 14 13 13 12 11 10 10 10 10 9 8 7 8 8 10 10 9 8 6 5 5 6 7 8 9 9 8 9 9 8
4 6 7 5 5 6 5 1 2 1 6 4 3 5 6 3 4 4 5 6 8 8 9 8 7 8 7 7 6 6 7 6 6 6 6 7 9 10 11 12 12 16 19 16 15 18 17 14 14 15 16 18 20 21 23 24 25 24 23 25 27 26 21 18 17 17 16 14 14 13 12 11 10 10 10 10 9 8 8 8 8 9 10 8 7 5 5 5 6 7 8 9 9 9 9 9 8
5 5 5 3 2 5 6 4 4 5 7 4 4 6 7 5 2 4 4 5 7 8 8 8 7 8 8 7 7 7 7 6 6 6 6 7 10 11 10 9 9 14 17 16 14 15 14 12 13 16 20 20 22 26 28 26 24 24 24 24 25 24 20 17 17 17 16 15 14 13 12 12 11 10 10 10 10 9 9 9 8 8 9 8 7 5 5 5 7 8 8 8 9 9 9 9 8
7 4 3 3 4 6 6 6 6 6 7 5 4 6 6 5 1 5 4 4 7 7 7 7 7 7 6 6 7 7 7 7 6 6 7 7 9 11 12 11 11 14 16 16 14 12 11 13 18 20 18 16 23 30 32 29 25 24 23 23 24 23 20 18 18 18 17 16 15 14 13 13 12 11 10 10 11 10 10 9 8 8 9 8 7 5 5 6 7 8 8 7 7 8 8 8 8
9 6 5 5 4 4 4 4 5 6 7 6 5 5 2 1 2 4 4 4 6 6 6 6 6 6 5 5 5 5 5 5 5 6 6 7 9 11 12 13 13 12 14 17 16 14 12 15 17 17 16 16 22 27 29 28 26 24 23 23 23 21 17 17 19 19 17 16 15 15 14 14 13 11 11 11 11 10 10 9 9 9 9 8 6 6 5 6 7 7 7 6 6 7 7 8 8
8 7 8 7 4 3 4 4 5 5 6 5 5 5 0 4 4 3 4 4 4 5 5 5 4 4 4 5 4 4 3 3 2 3 4 6 8 10 11 13 12 10 13 19 21 18 14 13 15 17 18 22 25 27 27 27 25 24 24 24 24 21 17 18 20 19 17 16 15 15 14 14 13 11 11 11 10 10 10 9 9 9 10 8 6 6 6 6 7 7 7 7 6 6 6 7 7
5 6 8 8 7 5 6 7 6 5 6 5 5 5 1 4 3 3 3 2 3 4 5 5 5 4 5 5 4 3 3 3 3 2 3 5 7 8 10 12 12 12 13 17 21 19 16 15 15 16 19 24 26 25 25 26 26 24 24 25 25 23 20 20 20 18 16 15 15 15 14 13 12 11 11 10 10 11 10 9 9 10 10 8 7 6 6 6 7 8 7 7 6 6 6 6 6
Wind_Direction
167 172 180 171 195 205 201 219 231 186 239 257 247 267 123 101 344 267 192 171 223 138 39 316 315 300 275 291 298 299 316 320 342 337 306 72 143 143 134 137 139 140 140 141 143 148 150 152 152 148 147 146 147 146 146 147 149 149 150 151 151 149 149 150 149 149 149 148 143 142 142 141 141 140 139 139 139 139 139 137 137 136 136 135 133 129 124 124 125 125 121 117 114 108 101 97 95
182 180 180 181 200 215 194 216 255 192 217 252 221 235 76 104 232 245 232 320 334 17 323 303 302 287 263 278 285 281 287 3 26 58 83 121 137 141 146 143 140 141 140 141 144 146 148 151 151 148 145 145 146 146 145 146 149 151 152 152 152 151 151 151 148 147 149 148 143 143 143 142 142 142 142 142 141 141 139 137 138 137 137 135 133 131 127 127 127 127 124 121 118 115 108 99 95
193 185 184 189 201 231 203 212 256 236 235 264 176 106 65 200 207 345 352 332 339 331 307 300 293 274 245 242 244 267 219 71 67 81 107 139 139 146 151 143 138 140 141 141 144 146 147 151 150 147 145 146 146 147 147 148 150 153 154 155 154 154 153 150 147 147 149 148 144 144 145 145 145 144 145 144 145 147 144 140 139 137 137 137 138 135 130 129 129 128 126 124 123 121 115 105 100
188 198 197 196 199 227 210 218 255 262 255 270 136 92 90 133 62 25 347 323 320 310 301 298 289 225 261 260 341 292 111 80 72 90 132 147 146 149 147 140 136 139 143 143 146 146 148 152 150 148 146 146 146 147 147 149 153 155 157 158 158 157 154 151 150 150 150 150 148 149 150 147 145 145 145 143 145 147 143 141 138 139 142 142 139 135 131 131 130 128 128 126 125 126 123 115 109
188 200 209 224 226 218 220 237 246 249 259 298 7 101 104 44 9 337 326 311 306 300 294 285 274 132 249 320 3 310 75 83 98 116 134 130 139 147 144 140 138 143 146 144 148 146 149 153 151 150 148 147 146 146 146 148 153 156 158 159 160 157 154 153 151 151 152 154 152 153 151 145 145 146 143 142 145 144 142 141 141 144 146 143 137 135 134 132 130 128 128 128 128 128 126 122 116
187 185 205 243 268 296 243 235 224 236 251 326 308 82 70 353 340 324 315 306 299 289 275 269 274 217 180 76 34 15 36 98 124 129 134 131 140 145 142 141 141 146 146 145 147 146 150 154 152 152 149 148 148 146 145 148 152 156 158 158 158 155 154 153 151 151 153 154 153 157 155 147 147 147 145 145 148 147 144 143 145 147 145 141 138 137 136 134 131 130 129 129 130 127 123 123 120
192 181 193 223 210 233 245 241 247 243 104 18 303 342 357 345 335 318 313 308 294 258 237 248 267 255 166 124 99 59 48 186 137 141 143 141 143 144 143 142 142 144 147 145 144 147 154 154 153 153 151 150 150 148 147 149 153 155 157 157 156 155 154 152 152 152 154 157 158 163 159 150 148 147 149 150 151 151 148 145 147 148 143 141 141 139 138 137 134 134 137 136 132 126 120 120 121
209 205 199 220 199 211 246 248 256 264 68 27 317 341 344 335 330 316 317 307 288 255 231 241 248 247 155 144 152 74 78 111 134 139 137 141 144 145 144 142 142 143 148 146 144 151 156 155 154 154 152 152 151 150 149 150 153 154 156 156 156 155 154 152 153 155 158 162 164 164 156 150 148 147 150 151 152 153 149 147 148 146 146 146 145 144 141 139 141 144 145 140 131 124 121 121 120
208 221 209 234 228 212 244 246 243 264 287 335 342 354 335 326 327 316 314 297 279 263 246 243 233 230 149 141 111 94 93 103 128 136 138 143 145 147 144 144 145 145 149 147 146 150 156 157 157 156 154 153 152 150 150 150 151 152 154 156 157 155 155 154 155 157 159 161 163 159 152 149 147 148 150 149 151 152 151 150 150 150 152 150 145 143 142 141 146 150 146 135 128 125 126 124 120
202 228 228 235 239 225 234 236 221 199 162 347 356 357 343 337 328 316 314 301 285 260 248 241 220 215 150 135 113 107 110 121 134 138 142 144 145 150 147 147 148 149 151 148 147 149 156 160 158 158 156 154 153 151 149 148 148 149 152 155 155 154 156 158 158 158 154 153 155 153 148 148 148 149 148 147 149 150 154 156 155 155 155 151 145 142 143 147 149 149 142 130 123 123 129 128 122
207 210 240 238 230 234 234 229 197 146 124 236 66 59 355 340 323 321 322 310 293 261 230 214 209 202 164 122 104 117 129 142 143 141 144 146 149 153 151 151 152 153 153 150 149 150 156 161 159 157 157 155 153 151 149 148 147 148 150 151 152 152 156 160 161 159 154 151 151 150 148 148 149 148 146 147 147 145 153 158 157 156 154 151 148 145 145 151 155 151 141 130 123 121 127 129 123
228 183 218 238 234 241 252 267 222 131 183 180 115 66 348 334 334 339 332 318 299 254 206 200 198 190 178 131 110 130 147 158 147 144 146 148 152 153 152 151 154 157 155 151 150 151 154 157 160 159 158 156 153 151 149 148 149 149 148 150 152 154 157 161 164 161 156 154 153 151 149 148 146 146 147 149 147 144 151 160 161 154 150 149 149 149 149 153 157 152 141 134 128 124 125 128 125
242 199 218 236 255 258 261 278 275 265 207 139 90 27 338 339 351 347 333 320 266 218 188 195 203 189 181 121 123 144 155 158 148 148 149 150 153 152 152 151 157 159 156 153 151 152 153 155 160 162 161 157 153 151 150 151 152 151 149 151 154 155 159 163 164 163 158 156 156 154 151 149 147 147 149 150 148 148 150 158 164 157 150 149 151 155 155 155 157 153 143 135 130 126 126 128 127
240 231 244 246 255 255 258 260 222 232 170 113 70 359 334 346 351 347 340 330 133 31 159 191 211 190 167 120 148 163 156 153 151 151 150 151 150 151 153 153 158 158 158 156 154 155 156 156 158 160 160 157 154 152 154 154 155 154 153 153 154 156 160 163 162 161 158 157 158 156 153 151 149 148 149 148 149 152 150 152 158 157 154 153 156 159 161 158 154 152 142 134 129 124 125 129 130
241 243 251 257 247 238 234 242 254 238 140 100 52 350 332 358 355 348 354 338 54 29 296 176 205 197 183 192 174 162 160 154 154 152 148 149 148 150 152 155 159 158 160 160 159 160 160 159 158 160 159 158 157 156 158 159 159 159 157 155 155 158 160 162 161 159 158 160 159 155 152 150 149 149 148 148 148 153 152 151 154 155 158 157 158 161 161 158 153 151 142 134 132 123 122 128 132
241 247 235 249 245 232 199 206 237 230 118 82 24 353 330 1 5 356 3 328 13 98 204 167 187 306 270 237 139 148 158 154 152 150 146 147 146 148 151 156 159 159 162 163 164 164 164 163 160 160 159 158 156 157 160 159 161 162 160 157 156 159 159 161 159 157 159 159 157 153 152 148 148 149 147 147 146 148 149 151 153 151 153 156 159 164 164 160 154 150 142 137 136 128 119 124 131
220 238 234 237 237 232 178 196 219 251 74 49 360 355 333 345 4 3 347 286 328 147 210 156 164 355 345 13 115 141 152 152 151 149 148 150 151 152 155 159 161 164 165 167 169 166 166 165 159 157 158 157 155 157 159 158 161 161 160 157 155 158 160 159 158 158 158 157 158 154 150 146 146 146 144 145 144 143 145 149 152 149 151 156 162 167 171 168 159 151 144 140 136 131 122 120 129
208 221 227 233 233 231 81 57 9 350 355 3 343 348 334 331 350 355 322 255 322 237 200 166 166 104 28 87 124 140 149 154 153 153 155 156 159 160 161 163 166 168 169 170 171 169 167 163 157 155 158 159 156 156 156 158 160 158 157 157 159 161 161 160 157 157 156 158 159 155 149 147 146 146 145 145 143 140 141 146 151 151 154 162 169 172 176 173 165 157 149 144 139 135 130 122 129
221 227 231 239 251 36 44 27 27 346 332 340 328 334 328 325 339 340 324 313 299 237 189 178 183 145 125 132 141 147 151 157 158 160 163 165 167 167 168 168 170 171 173 173 171 172 168 162 157 157 160 161 159 156 155 156 156 155 154 156 161 160 160 163 161 158 161 162 159 159 155 148 146 148 149 147 144 143 142 147 152 154 158 163 167 169 173 173 170 166 157 150 142 140 139 134 141
226 234 240 240 66 42 61 64 16 339 328 323 319 324 315 324 334 322 322 317 285 222 184 186 195 168 155 154 153 155 158 162 164 167 170 173 173 173 173 170 173 173 174 175 171 172 168 162 161 160 161 163 163 159 157 155 155 156 152 156 163 162 163 167 170 164 165 167 163 165 158 148 150 147 146 145 141 141 141 145 148 148 152 150 146 150 159 162 165 167 164 155 146 151 152 146 152
216 225 252 341 74 239 137 131 320 319 318 313 311 310 306 329 324 303 313 308 268 150 178 209 203 178 164 164 164 165 166 167 170 174 176 179 178 178 177 173 175 174 175 177 173 173 169 163 164 164 163 166 165 161 159 157 157 155 152 163 168 168 170 173 177 169 167 173 167 162 153 149 150 142 141 142 138 139 139 139 138 136 139 137 132 139 148 146 151 158 161 159 157 170 172 161 161
232 226 250 320 262 257 144 259 303 310 304 300 299 305 318 325 305 297 308 301 329 46 1 281 208 179 170 171 171 172 173 175 177 179 182 182 181 180 177 175 176 175 178 179 175 175 172 165 165 166 166 168 166 161 161 157 156 152 152 165 169 171 174 177 180 171 168 170 163 156 149 147 144 139 143 142 138 140 140 140 141 138 138 139 140 145 147 146 154 158 160 166 172 181 182 176 172
241 225 229 235 251 267 274 286 291 296 292 292 298 311 322 307 296 308 306 292 309 342 327 291 225 179 174 171 174 180 181 181 181 182 185 183 183 182 177 177 179 180 182 181 177 176 174 170 167 164 165 168 165 163 160 154 154 151 151 160 164 169 172 177 179 171 165 160 159 155 145 142 141 143 144 137 136 136 138 141 142 140 139 142 142 141 141 147 154 155 161 169 175 180 181 183 179
236 236 215 230 248 260 269 282 282 286 288 291 297 302 302 293 300 316 299 290 303 312 286 262 224 172 172 175 179 188 186 183 183 184 185 184 186 182 176 181 183 184 186 183 178 174 174 172 167 165 164 164 161 158 157 154 155 152 152 158 161 165 165 171 173 163 159 157 159 154 143 142 144 145 140 136 136 134 138 140 140 142 140 143 141 140 143 143 141 144 154 160 170 175 177 184 182
229 243 236 237 246 253 267 273 274 282 282 287 289 287 285 287 306 301 286 294 325 309 259 224 193 171 176 181 183 189 188 183 180 180 184 186 186 181 182 190 189 191 190 182 177 174 174 171 165 164 161 158 154 153 156 156 155 152 152 158 162 164 162 165 165 152 151 155 155 150 145 145 145 146 143 141 138 137 141 141 144 147 148 154 150 151 150 141 137 139 146 152 162 170 173 180 180
216 237 245 252 256 259 269 270 274 277 274 283 281 279 278 289 312 285 273 327 10 268 222 194 178 178 182 181 184 188 184 178 176 173 179 184 182 185 190 193 196 199 194 182 179 177 175 172 165 160 157 155 152 154 161 158 154 154 155 161 163 163 163 157 155 153 152 154 151 148 150 147 146 148 145 144 143 142 145 147 149 150 157 164 158 154 150 141 140 140 143 150 157 165 168 174 179
180 237 252 261 265 266 269 270 273 275 272 267 268 276 279 286 288 259 122 68 327 223 196 189 186 186 182 179 180 182 181 176 169 160 171 182 182 189 197 203 206 209 205 186 182 181 174 169 158 152 154 154 153 159 161 159 156 155 159 164 164 163 161 154 153 157 153 153 151 150 152 151 149 149 149 150 149 148 150 153 152 154 158 163 160 157 155 147 142 143 141 143 152 161 160 165 175
253 250 262 254 256 257 253 260 263 265 266 258 262 274 272 265 257 250 58 51 262 227 204 192 196 188 175 178 172 172 175 151 130 140 172 168 143 141 150 204 244 263 257 213 183 176 158 145 144 149 158 158 160 165 161 160 158 157 163 164 165 165 158 152 156 159 153 153 153 153 155 156 154 153 156 156 154 154 154 155 155 156 157 159 161 157 162 156 148 148 141 136 140 151 156 157 160
250 251 263 249 245 248 237 243 259 259 263 265 271 269 251 234 236 234 66 349 245 231 221 200 206 190 168 171 162 156 137 116 124 153 167 149 127 129 139 165 210 288 285 284 199 156 141 138 151 155 159 161 163 166 162 161 159 160 166 163 164 166 160 153 158 161 156 153 153 156 159 160 159 158 159 159 157 156 154 156 154 152 152 154 157 157 164 162 157 156 147 141 138 144 151 148 147
247 232 252 257 245 236 204 209 247 243 248 256 252 259 234 208 217 199 71 239 232 226 221 210 212 190 170 169 149 139 135 142 162 169 161 155 155 159 160 174 188 184 184 250 237 161 151 153 161 158 157 164 169 169 164 163 162 164 165 164 166 164 162 160 161 166 160 155 157 160 161 163 165 163 161 159 159 158 155 156 155 153 152 152 157 160 163 161 160 161 157 152 144 145 148 149 151
238 224 230 247 249 186 132 155 242 223 158 198 227 244 241 192 173 102 66 216 226 230 221 214 215 193 179 162 139 148 166 172 171 168 163 164 174 179 175 180 185 180 176 188 194 176 163 154 160 162 163 169 173 171 169 169 167 166 166 165 166 163 166 166 164 168 163 160 162 163 166 167 168 167 164 162 161 162 161 161 161 159 155 154 160 165 164 162 159 160 163 157 149 146 143 148 152
219 236 219 212 235 163 136 161 231 289 98 182 224 240 245 208 139 99 84 193 224 237 226 220 220 200 182 152 139 159 175 176 171 171 175 174 180 189 188 188 189 184 174 162 152 168 167 161 167 170 173 174 171 169 171 174 169 165 165 164 165 165 168 167 167 170 166 165 166 167 170 169 170 169 166 167 166 168 169 167 164 162 161 159 160 162 164 162 158 157 160 160 156 148 138 138 139
207 233 240 199 216 210 161 162 160 311 34 186 230 261 258 211 138 127 118 218 228 239 234 228 227 207 185 153 144 167 172 173 177 178 187 187 190 198 195 189 189 184 172 157 149 164 172 180 183 176 178 178 171 170 172 176 174 165 162 164 168 168 168 169 170 170 167 167 168 168 170 171 173 170 169 171 171 175 174 164 162 166 166 163 161 162 166 164 159 158 155 158 159 151 140 134 134
198 213 244 229 229 250 200 154 149 226 264 226 237 257 268 263 208 186 184 233 235 242 242 231 229 212 192 164 155 177 176 174 181 182 193 196 198 205 198 185 186 182 173 165 160 167 175 185 190 183 182 180 174 172 171 177 177 167 161 163 167 168 171 174 172 170 170 170 169 168 170 171 174 173 173 174 175 180 172 164 167 171 168 167 169 164 161 159 155 159 155 152 155 151 144 141 139
216 203 233 235 225 237 239 192 132 228 265 258 253 248 257 262 251 223 202 226 240 244 250 245 235 216 195 179 172 183 184 180 184 187 195 199 202 206 195 180 186 183 181 179 170 168 175 182 187 186 183 179 176 171 170 176 174 164 162 163 164 170 176 174 171 172 173 173 171 169 169 172 177 177 178 177 179 180 171 168 170 171 172 173 176 167 160 156 153 159 157 152 151 147 143 141 138
275 232 255 259 233 232 237 256 313 304 281 265 259 257 256 259 255 236 206 210 242 249 250 251 241 220 201 190 182 187 193 184 179 187 195 203 207 202 185 175 178 177 182 187 181 175 178 182 183 185 182 176 173 170 170 176 171 163 164 169 169 175 179 172 172 175 175 177 174 171 171 176 181 182 183 180 179 179 174 173 171 174 180 182 185 179 172 166 163 165 159 152 150 143 140 140 140
281 264 259 259 255 255 188 215 268 288 282 268 258 261 263 263 262 252 224 201 237 250 247 247 240 226 211 198 189 188 196 188 178 184 193 205 211 196 179 172 168 175 184 194 199 188 182 181 180 181 177 172 174 173 173 176 174 167 170 177 177 178 176 169 172 176 175 177 174 173 176 181 185 185 186 182 179 180 176 175 173 177 185 189 192 187 179 174 174 173 160 154 153 147 144 147 150
256 259 260 254 255 259 161 228 272 237 257 268 260 262 262 260 261 256 239 222 237 248 249 248 240 231 219 204 195 189 193 191 182 184 194 205 209 192 177 172 172 181 187 196 207 197 185 180 177 177 173 172 177 176 175 178 178 173 174 181 181 177 173 170 173 174 173 173 171 175 180 186 189 188 187 184 182 182 181 180 174 174 182 186 186 182 179 178 180 178 166 158 154 153 151 154 161
245 250 258 258 261 277 214 197 199 185 243 278 277 273 268 264 262 257 246 238 243 246 249 252 244 235 226 209 197 190 190 191 187 188 196 201 201 190 179 177 181 182 183 189 195 192 186 181 176 175 173 173 176 176 177 178 177 174 176 181 180 175 171 170 171 169 169 170 171 176 182 186 189 190 188 185 183 183 185 182 170 169 176 178 181 180 179 183 184 180 175 166 156 159 160 161 172
235 241 251 252 255 278 237 173 169 217 263 281 288 284 275 268 260 254 249 244 247 245 244 251 248 240 230 216 203 195 192 191 193 194 197 199 196 188 180 181 185 183 179 181 183 183 184 183 178 177 175 173 174 178 177 175 173 171 173 175 174 170 164 163 163 164 167 168 172 177 180 183 185 187 184 180 180 180 181 177 166 167 174 178 183 184 183 185 183 180 180 174 165 165 165 167 181
231 235 249 263 269 273 272 258 268 278 255 247 267 274 262 253 245 243 237 230 239 240 229 232 236 235 233 222 208 202 196 191 196 200 199 200 196 188 183 183 184 183 185 183 180 181 184 185 182 179 177 174 174 179 177 172 168 166 166 165 164 161 158 162 166 168 170 170 174 177 177 179 180 182 180 178 178 174 175 174 168 170 175 180 182 183 183 181 179 181 181 177 176 174 169 173 185
241 224 235 260 271 272 272 271 275 279 249 202 224 263 256 237 234 237 223 210 221 218 216 227 228 224 225 221 212 204 198 193 197 202 199 201 199 191 187 186 181 181 189 186 181 184 185 185 184 180 178 179 177 178 178 172 168 168 169 167 167 166 165 171 175 173 171 171 174 172 170 173 176 178 178 177 175 171 174 174 171 173 174 177 179 178 179 178 179 181 179 180 185 185 178 177 183
255 204 217 246 261 268 268 256 233 262 278 156 198 265 274 247 225 219 212 212 216 205 212 235 236 231 227 223 216 205 199 196 197 200 200 203 201 192 191 190 185 184 187 183 179 183 184 184 186 181 180 183 181 179 178 173 171 173 173 172 173 173 173 176 177 174 169 168 168 164 165 169 172 175 175 175 173 170 174 173 171 171 171 173 175 174 176 180 184 179 176 182 188 188 188 186 183
254 112 186 240 255 266 250 237 229 259 308 181 209 245 269 266 238 207 211 227 227 211 205 239 259 260 249 237 225 211 204 197 195 199 202 206 204 200 198 193 189 184 181 181 179 179 180 180 181 180 183 186 184 180 179 176 176 175 175 176 176 177 178 174 172 171 167 164 164 162 163 166 170 173 171 172 171 167 171 172 170 170 170 170 171 174 175 176 179 172 172 181 187 187 189 197 190
252 106 201 263 280 275 244 231 231 246 284 240 218 217 244 262 238 199 210 229 233 211 163 45 355 304 271 248 231 216 207 199 195 198 202 209 210 210 206 196 192 184 175 179 180 178 177 174 176 180 184 187 184 181 179 178 178 177 178 180 178 178 177 171 168 167 165 163 162 161 162 163 166 170 171 173 170 165 167 171 171 170 170 169 171 174 173 173 173 168 172 180 183 186 188 200 198
251 150 235 257 256 254 233 231 235 214 242 253 227 200 230 263 242 215 211 226 242 213 80 38 17 347 288 248 236 218 207 197 182 182 203 211 211 217 216 198 191 178 170 175 175 177 178 175 177 182 183 185 182 180 179 178 178 179 181 180 179 178 173 169 166 165 165 164 161 161 162 163 164 168 171 173 170 168 169 170 170 169 169 170 172 173 172 173 173 169 173 178 178 183 186 196 200
233 211 226 226 214 216 212 226 242 223 231 249 233 204 234 265 256 246 216 213 331 7 14 11 10 352 315 225 228 212 198 183 165 174 196 190 167 186 185 172 177 172 169 172 171 175 180 180 182 184 183 183 180 177 177 178 177 177 178 179 178 175 170 169 166 164 165 164 163 162 162 164 163 165 167 167 168 168 167 167 167 167 168 169 171 174 174 174 174 170 171 174 177 184 187 192 200
227 234 231 222 204 198 209 206 212 237 239 239 213 207 232 253 259 268 92 73 6 5 2 1 356 339 330 178 188 175 164 157 158 175 177 150 131 141 153 164 177 177 172 172 173 178 183 186 186 184 182 183 181 178 177 179 177 174 175 176 176 171 168 169 167 166 166 164 164 163 163 164 162 162 163 164 168 167 164 165 164 165 168 169 170 172 171 171 171 170 170 173 178 185 189 192 197
220 232 229 229 216 198 218 212 204 234 232 137 146 207 233 249 265 49 84 58 21 24 18 9 358 343 4 149 152 147 151 150 155 173 172 158 147 149 152 148 152 173 183 178 176 181 187 190 189 184 182 185 185 180 177 177 173 171 172 173 174 170 168 171 169 166 165 165 164 164 164 164 162 163 164 164 167 167 166 168 166 167 169 170 171 171 170 171 171 169 168 169 174 181 186 193 199
212 221 219 228 228 214 226 223 218 234 215 129 157 226 248 249 267 56 57 42 31 32 35 31 26 28 63 117 129 137 151 155 153 153 155 156 151 148 147 139 143 170 199 193 184 188 192 193 192 187 184 187 186 179 176 175 169 166 168 169 172 171 170 173 170 166 167 166 165 166 165 164 163 163 163 162 163 165 168 171 173 172 170 168 169 169 170 175 176 172 168 164 168 177 182 193 202
206 219 229 236 241 238 242 243 246 247 215 134 159 207 256 254 124 61 54 51 41 40 51 51 46 48 61 89 114 122 124 135 134 127 136 144 143 144 147 150 157 167 182 189 189 195 199 198 195 191 187 186 182 175 171 166 163 166 169 169 172 172 173 173 169 167 168 167 166 166 165 162 161 161 161 160 161 164 165 169 174 170 165 164 163 163 167 177 183 177 171 167 170 177 180 192 201
198 213 233 240 246 247 255 287 313 294 264 203 180 223 269 238 109 89 84 70 54 53 59 58 56 61 65 73 92 105 107 118 127 136 156 153 144 146 152 162 165 161 167 177 185 193 199 200 199 197 191 183 175 168 163 161 164 169 171 171 173 173 172 170 168 166 168 168 165 165 164 161 157 156 157 159 161 164 163 164 166 161 159 157 155 160 168 177 181 170 166 169 170 177 182 189 196
182 207 225 228 254 261 256 214 114 262 265 244 201 247 259 193 136 103 98 80 66 64 67 68 67 67 71 75 83 99 109 126 138 149 168 170 169 168 162 168 167 157 162 173 181 185 189 198 199 181 161 153 151 153 158 163 168 172 176 178 176 175 172 169 168 166 166 167 163 162 161 156 154 153 154 159 162 160 159 159 158 156 155 153 151 157 169 177 179 168 164 167 166 171 179 184 191
199 212 222 195 231 255 253 244 222 231 252 244 218 251 259 237 200 100 95 82 78 75 72 75 73 69 70 73 81 90 100 118 137 152 167 175 181 180 172 172 168 157 159 167 177 180 182 187 171 140 122 126 143 153 160 168 172 175 182 182 179 179 176 172 170 168 167 165 162 162 161 156 153 153 153 157 158 155 155 157 157 156 155 151 147 150 165 178 182 174 167 164 163 167 174 178 184
234 267 278 234 230 228 220 234 247 247 253 253 235 243 257 260 221 111 110 94 94 93 84 81 77 79 81 77 86 98 106 119 132 149 167 177 182 180 173 168 170 168 159 155 159 163 158 146 136 127 121 140 162 162 162 168 172 175 181 183 183 184 180 173 170 170 169 167 165 164 164 160 156 154 155 155 155 154 154 155 158 160 156 152 148 150 163 174 181 176 169 165 165 169 173 173 172
228 255 256 245 255 247 226 231 245 249 256 257 246 238 241 360 45 95 99 87 97 103 100 95 84 86 95 91 93 99 107 122 133 146 162 176 181 179 170 162 165 168 150 135 129 129 133 135 142 155 158 162 169 165 163 168 171 174 179 184 187 184 178 173 170 172 172 169 169 168 166 164 159 156 156 156 155 155 154 155 159 162 160 158 154 154 157 163 168 166 160 159 163 169 174 169 163
209 222 224 222 226 235 244 248 245 254 263 257 253 253 181 53 31 52 73 73 92 101 100 106 110 103 90 85 84 78 84 102 113 135 154 167 172 173 169 160 153 145 134 125 122 130 146 155 166 176 167 161 167 168 167 170 171 174 179 186 189 182 175 174 172 173 173 170 170 171 168 165 161 158 157 157 158 156 155 157 159 162 163 161 157 155 154 151 150 145 141 145 153 164 168 161 158
231 231 227 227 227 225 238 238 226 239 263 268 272 269 90 65 22 40 66 56 77 100 105 104 96 75 64 67 65 60 73 80 69 84 128 152 162 166 172 167 150 135 131 127 128 141 157 163 171 175 164 163 168 167 167 169 170 177 186 189 190 184 177 176 175 174 172 170 172 172 170 166 161 158 158 159 157 156 156 158 160 162 162 159 155 152 154 152 146 141 139 140 147 156 154 147 152
Height
791 791 791 791 789 790 788 785 792 790 788 791 779 773 772 768 769 771 772 771 770 766 762 763 761 762 766 767 765 761 761 764 766 772 779 776 772 772 773 773 776 779 782 784 787 789 792 793 794 795 797 798 799 800 801 803 804 806 807 809 810 812 814 815 816 818 819 820 821 822 824 825 826 826 827 827 828 829 830 830 831 831 832 832 832 833 833 833 834 834 834 834 834 834 834 834 834
792 792 790 791 789 790 785 782 791 788 789 790 775 772 771 768 773 773 771 770 769 765 761 760 759 759 762 762 761 763 763 762 763 769 775 773 773 774 774 775 777 780 782 785 788 790 793 794 794 796 797 798 799 801 802 803 805 806 808 809 811 812 814 816 817 818 819 821 822 823 825 825 826 827 827 828 829 830 830 831 831 832 833 833 834 834 834 834 834 835 835 835 835 835 835 835 835
792 791 790 791 788 786 783 785 790 786 788 783 770 769 770 771 773 771 770 768 765 763 761 760 759 758 761 764 763 766 767 762 762 767 773 773 773 775 776 776 778 781 783 786 789 791 794 795 795 796 798 799 800 801 802 804 806 807 808 809 811 813 815 816 817 819 820 821 823 824 825 826 827 827 828 829 830 830 831 831 832 833 834 835 835 835 835 835 835 836 836 836 836 836 836 836 836
791 791 790 788 786 786 785 789 786 784 786 776 770 771 770 771 771 771 769 766 764 762 762 761 761 757 760 767 763 763 766 764 764 767 772 773 773 775 777 778 780 782 784 787 789 792 794 795 796 797 798 799 800 802 803 804 806 808 809 810 811 813 815 816 818 819 820 822 823 824 825 827 827 828 829 829 830 831 831 832 833 834 835 835 835 836 836 836 837 837 837 837 837 837 837 837 837
791 791 789 786 787 786 784 788 784 784 781 770 771 771 770 770 770 771 768 764 762 762 762 761 763 758 758 763 762 765 767 766 767 767 770 773 774 776 777 779 781 783 785 788 790 792 794 795 797 798 799 800 801 802 803 805 806 808 809 810 812 814 815 817 818 820 821 822 823 825 826 827 827 828 829 830 831 831 832 833 834 835 836 836 836 837 837 837 838 838 839 839 839 838 838 838 838
791 790 789 785 784 782 785 788 785 781 772 767 771 769 768 769 770 771 766 763 759 760 760 760 762 759 761 762 761 765 767 769 769 768 771 773 775 777 778 780 782 784 786 788 791 793 795 796 797 798 799 800 801 802 804 805 806 808 809 811 813 814 816 818 819 820 821 823 824 825 826 827 828 829 830 830 831 832 833 834 835 836 837 837 837 838 838 838 839 839 840 840 840 839 839 839 839
789 788 787 787 784 784 788 787 779 774 767 767 772 769 769 769 768 768 767 765 761 759 758 758 757 760 765 763 763 767 769 770 768 770 773 774 776 778 779 781 783 785 787 789 792 794 795 796 798 799 800 801 802 803 804 805 807 808 810 812 814 815 817 818 820 821 822 823 824 825 827 828 829 830 830 831 832 833 834 835 836 837 838 838 838 839 839 839 839 840 840 840 840 840 840 840 840
788 786 784 787 788 787 787 782 775 770 767 767 769 770 771 770 768 768 767 767 765 760 759 757 754 763 765 759 766 770 769 770 768 772 774 775 777 778 780 782 784 786 788 790 792 795 796 797 799 800 800 802 803 804 805 806 807 809 811 812 815 816 818 819 820 821 823 824 825 826 827 828 829 830 831 832 832 833 835 836 837 837 838 839 839 840 840 840 840 840 840 841 841 841 841 840 841
786 785 785 786 786 787 785 779 774 769 769 769 769 771 770 768 766 767 767 765 762 760 759 755 755 764 763 761 769 769 770 771 771 773 774 776 778 779 781 782 784 786 788 790 793 795 797 798 799 800 801 803 803 805 806 807 809 810 812 813 815 817 819 820 821 822 823 825 825 826 828 829 830 831 832 832 833 834 835 836 837 838 839 839 840 840 841 841 841 841 841 841 842 842 842 841 842
785 784 785 786 785 788 784 776 772 769 769 769 770 770 769 766 765 765 765 763 759 759 758 752 756 760 760 765 770 770 772 773 772 774 775 777 778 780 781 783 785 786 788 790 793 795 798 799 800 802 802 803 805 806 807 808 810 811 812 814 816 818 820 821 822 823 824 825 826 828 829 830 830 831 832 833 833 834 835 837 838 839 839 840 840 841 842 842 842 842 842 842 843 843 843 843 843
786 784 783 786 787 786 780 772 769 768 768 768 769 768 767 765 765 764 762 762 758 759 757 755 759 758 759 767 771 772 773 773 773 774 776 778 779 780 781 783 785 787 789 790 793 796 798 800 802 803 804 805 806 807 808 809 811 812 814 815 817 819 820 822 823 824 825 826 827 829 830 830 831 832 833 833 834 835 836 838 838 839 840 841 841 842 842 842 843 843 843 843 843 844 844 844 844
787 784 784 788 784 779 774 771 770 769 768 769 770 768 766 764 765 765 764 762 759 760 758 757 757 753 762 769 771 773 773 772 772 774 777 778 779 781 782 784 786 787 789 791 794 796 798 801 803 804 805 806 807 808 809 810 812 813 815 816 818 820 821 822 824 825 826 827 828 829 830 831 832 833 833 834 835 836 837 838 839 840 841 842 842 843 843 843 843 844 844 844 844 844 844 845 845
785 782 784 785 777 774 773 773 773 773 770 768 771 769 765 765 767 765 764 761 759 762 757 753 751 752 764 769 771 773 772 772 772 775 777 778 780 781 783 784 787 788 790 792 794 796 799 801 803 805 806 807 808 809 810 811 813 814 816 817 819 820 822 823 824 826 827 828 829 830 831 832 833 833 834 835 835 837 838 839 840 841 842 843 843 844 844 844 845 845 845 845 845 845 845 846 846
782 779 782 782 776 775 774 774 773 773 771 768 771 769 765 765 766 762 762 762 760 760 755 750 749 756 765 770 774 772 770 772 773 775 776 778 780 781 784 785 787 789 791 793 794 796 799 801 803 805 807 808 809 810 811 812 813 815 816 818 819 821 822 824 825 826 828 829 830 831 832 832 833 834 835 835 836 837 839 840 840 841 842 843 844 844 845 845 846 846 847 847 846 846 847 847 848
781 778 782 782 778 776 774 774 772 772 771 768 770 768 765 762 760 761 762 765 762 755 753 751 750 759 767 768 769 767 768 772 773 775 776 779 781 783 785 786 788 790 792 793 795 796 798 801 802 804 806 808 809 810 812 813 814 816 817 818 820 821 823 824 825 827 828 829 830 831 832 832 833 834 835 836 837 838 839 840 841 842 843 844 845 845 846 846 846 847 848 848 848 848 848 848 849
780 779 784 785 780 775 772 773 772 773 771 768 767 766 767 762 757 762 761 760 761 754 754 756 753 758 763 761 759 760 766 771 773 776 777 780 781 783 785 787 789 790 792 793 795 796 798 800 801 803 805 806 809 810 812 814 815 816 818 819 820 822 823 825 826 827 828 829 830 831 832 832 833 834 835 837 838 839 840 841 841 842 843 844 845 846 846 847 847 848 848 849 849 849 849 850 850
781 782 786 785 779 773 770 771 772 774 770 768 767 766 770 766 757 758 756 755 759 758 756 757 754 756 758 756 756 759 767 771 773 776 777 780 781 783 785 786 789 790 792 793 794 796 797 799 800 803 804 806 808 810 812 814 816 817 819 820 821 823 824 825 826 827 828 829 830 831 832 833 834 834 836 837 838 840 840 841 842 842 844 844 845 846 846 847 847 848 849 850 850 850 850 851 851
784 785 786 782 774 770 769 770 771 772 772 771 769 767 770 769 763 757 756 756 758 760 759 758 757 757 757 756 759 763 768 771 773 775 776 778 780 781 783 785 787 789 791 792 794 795 797 799 800 802 804 806 808 810 812 813 816 817 819 821 822 823 824 825 826 827 829 829 830 831 832 833 833 834 836 838 839 840 841 841 842 843 844 844 845 846 846 847 848 849 850 850 851 851 851 852 852
783 781 783 776 769 769 770 771 773 773 774 773 770 767 768 768 764 759 761 761 758 761 761 759 761 761 759 759 762 766 769 771 773 774 775 776 778 779 781 783 786 787 789 791 793 794 796 798 800 802 804 806 808 810 812 813 816 817 819 821 822 823 824 825 826 827 828 829 830 831 831 832 833 834 836 838 839 840 841 842 842 843 844 845 845 846 847 847 848 849 850 851 851 852 852 853 853
779 778 781 772 768 773 772 773 774 774 773 774 771 768 767 764 761 761 763 761 757 759 759 759 763 763 762 760 762 767 769 771 773 773 775 775 776 778 780 782 784 786 788 789 791 793 795 797 800 802 804 806 808 810 812 813 816 818 819 820 821 823 824 825 825 825 827 828 828 830 830 832 833 834 836 838 839 840 841 842 842 843 844 845 846 847 847 848 849 850 850 851 852 853 853 853 854
778 778 778 770 771 775 772 773 773 772 772 773 772 769 767 762 760 761 762 762 757 755 754 755 759 760 761 761 762 767 769 770 772 773 774 774 776 777 779 782 784 785 787 788 790 792 794 796 799 801 803 805 807 809 811 814 816 818 819 819 820 821 823 824 824 824 826 827 828 830 831 832 833 834 837 838 840 841 841 842 843 844 845 846 847 847 848 848 849 850 850 851 852 853 854 854 855
778 777 774 772 775 775 772 772 772 772 771 772 772 770 767 762 761 759 761 765 758 753 752 751 752 754 758 759 761 765 768 769 770 772 773 774 775 777 780 782 784 785 786 787 789 791 793 795 797 799 802 804 806 808 811 813 816 817 818 819 820 821 822 823 823 824 827 828 830 831 831 832 833 834 837 838 840 841 842 843 844 845 846 846 847 847 848 848 849 850 850 851 852 853 853 854 854
780 775 772 774 774 774 772 771 771 771 771 773 771 768 766 766 764 758 759 761 753 749 750 749 748 750 755 757 760 764 766 768 769 771 773 775 777 779 781 783 784 785 786 787 789 791 792 793 795 797 800 803 805 807 811 813 815 817 819 820 821 822 823 823 823 825 827 830 832 832 832 832 833 835 836 838 840 841 842 843 844 845 845 846 846 847 848 848 849 850 850 851 851 852 853 854 854
780 775 773 774 773 774 772 770 771 770 772 771 768 767 768 768 764 759 758 755 748 748 748 748 747 748 753 756 760 764 765 768 770 772 774 777 779 781 782 783 784 785 785 787 788 790 791 792 794 796 798 802 805 807 811 813 815 817 819 821 822 823 824 824 824 825 828 830 832 833 833 833 834 835 836 838 839 841 842 843 844 844 845 846 846 847 847 848 849 849 850 850 851 852 852 853 853
779 776 773 773 773 773 770 770 770 770 770 768 768 770 768 764 762 761 758 751 748 749 748 747 747 749 754 757 760 764 766 769 771 774 777 779 781 783 784 784 785 785 786 787 788 789 790 792 794 796 799 802 805 808 811 813 815 817 820 821 822 823 824 825 826 826 828 830 832 833 833 834 834 836 837 838 840 841 842 843 844 844 845 846 846 847 847 848 849 849 850 850 851 851 852 852 853
775 774 772 773 773 771 770 770 770 769 768 767 770 770 765 760 762 761 753 750 750 749 749 748 749 752 754 757 760 763 767 770 773 776 779 781 782 784 785 786 787 787 787 788 789 789 789 792 795 798 801 804 807 810 812 813 815 818 820 822 823 824 825 825 826 828 829 830 831 833 833 834 835 836 837 838 840 841 842 843 844 844 845 845 846 846 847 848 848 849 850 850 850 851 851 852 852
771 773 773 773 773 771 771 771 769 769 767 767 770 770 764 759 764 763 752 751 751 750 751 750 750 753 755 757 760 764 768 771 774 778 781 782 784 786 788 789 789 789 789 790 790 790 791 794 797 801 804 806 809 811 812 814 816 818 821 822 823 824 825 825 827 828 830 831 832 833 833 834 835 836 837 839 840 841 842 843 844 845 845 845 846 846 847 847 848 849 849 850 850 850 851 852 852
772 774 775 774 772 771 770 770 769 768 766 764 765 768 764 761 764 760 752 751 751 752 753 752 752 753 755 758 761 765 770 774 779 780 781 781 783 785 788 789 791 792 793 792 793 793 793 796 800 802 804 806 809 811 812 814 816 819 821 822 823 824 825 826 827 829 830 831 832 833 834 835 835 836 837 838 840 841 842 843 844 845 845 845 846 846 847 847 848 849 849 849 850 850 851 851 852
773 774 777 773 770 770 768 767 767 767 767 761 764 770 766 762 760 753 750 751 751 753 753 753 753 753 756 758 761 767 773 777 779 778 777 779 781 782 783 786 791 795 796 795 795 796 796 798 800 802 804 806 808 811 812 815 817 819 821 822 823 824 825 826 827 829 830 831 832 833 834 835 835 836 837 838 840 841 842 843 844 844 845 845 846 846 847 847 848 849 849 849 849 850 851 852 853
774 773 776 773 771 769 763 765 766 766 767 761 767 776 764 755 753 748 750 752 752 754 753 753 753 753 756 758 762 769 774 776 775 775 777 778 778 779 779 780 782 786 791 796 797 797 797 797 800 802 803 806 808 810 812 815 817 819 821 822 823 824 825 827 828 829 830 831 832 833 834 835 836 836 837 838 840 841 842 843 844 844 845 845 846 847 847 847 848 848 849 849 849 850 851 852 852
773 773 774 773 773 768 762 765 766 765 765 760 767 776 761 749 749 749 751 752 753 755 752 751 751 753 755 757 764 769 770 772 773 775 777 776 776 776 776 776 774 774 779 790 796 798 799 799 801 802 804 806 808 810 812 815 817 819 821 822 823 824 826 827 828 829 830 831 832 833 834 835 836 837 837 838 839 841 842 843 844 844 844 845 846 846 847 847 848 848 848 849 849 850 851 852 852
772 777 775 770 771 767 763 764 764 765 764 759 765 771 759 747 748 750 751 751 753 754 752 751 751 753 755 759 766 768 768 770 773 776 776 776 775 774 774 774 774 773 773 781 791 797 800 802 802 802 804 806 808 809 812 815 817 819 821 822 823 824 826 826 828 829 830 831 832 833 834 835 836 837 837 838 839 840 842 843 843 844 844 845 846 846 847 847 847 848 848 849 849 850 851 852 853
771 775 772 768 770 767 764 764 762 764 764 761 764 767 757 748 748 750 750 751 753 753 752 751 751 753 755 760 765 766 767 771 772 774 775 775 775 773 773 774 775 778 777 776 783 793 798 801 802 800 803 806 807 809 812 814 816 818 820 822 823 824 825 826 828 829 830 831 832 833 834 834 836 836 837 838 839 840 841 842 843 843 844 845 845 846 847 847 847 848 848 849 849 850 851 852 853
770 772 772 768 769 768 767 765 763 763 765 765 764 765 760 751 748 748 749 750 752 753 752 751 751 753 755 759 764 765 766 770 771 772 773 773 773 771 772 775 776 779 783 780 778 784 791 797 800 800 802 805 806 808 811 814 815 817 819 821 823 824 825 827 828 829 830 831 832 833 833 834 835 836 837 838 839 840 841 842 842 843 844 845 846 846 847 847 847 848 848 849 850 851 851 852 854
768 771 772 769 768 770 769 766 763 764 766 766 765 765 760 752 747 746 747 749 751 751 750 750 749 751 754 758 763 763 764 768 769 769 770 771 770 771 773 776 777 779 784 785 781 781 787 794 797 800 802 804 806 807 810 813 814 816 818 821 823 825 826 827 828 829 830 831 832 833 833 834 835 836 837 838 839 840 840 841 842 843 844 845 846 847 847 847 847 848 848 849 850 851 852 853 854
768 768 770 769 769 768 766 766 763 763 768 768 765 764 758 752 748 745 745 747 750 750 749 749 749 749 752 756 760 762 763 765 767 768 769 769 769 771 773 775 778 779 782 785 784 782 785 791 795 798 801 802 805 807 809 812 813 815 818 821 823 825 825 826 827 828 830 831 832 832 833 833 835 836 837 838 838 839 840 841 842 843 844 845 846 847 847 847 848 849 849 849 850 851 852 853 854
771 770 770 769 769 765 763 767 764 762 771 768 761 761 758 753 749 744 743 747 750 750 749 749 748 749 751 753 757 760 762 763 765 767 768 768 768 770 773 774 777 780 782 785 786 784 784 788 792 795 798 801 803 806 808 810 812 814 817 819 822 824 825 825 827 828 829 830 831 832 832 833 835 836 837 837 838 839 839 840 842 843 844 845 846 847 847 848 848 849 849 850 851 852 853 854 854
774 773 771 768 766 762 762 768 764 762 771 767 758 761 759 753 749 744 742 747 750 748 748 748 746 747 748 750 754 756 758 760 763 766 767 767 768 770 773 775 777 780 782 785 786 787 788 789 792 794 797 800 802 805 807 809 811 813 815 818 820 822 823 824 826 827 828 829 831 832 832 833 834 835 836 837 838 838 839 840 841 842 844 845 846 847 847 848 849 849 850 850 851 852 853 854 854
775 773 772 770 763 761 763 766 764 763 769 766 758 762 760 751 747 743 741 743 745 743 743 743 743 744 745 746 750 752 755 758 760 763 765 765 766 769 771 774 777 779 781 784 786 788 790 791 792 794 797 799 802 804 806 808 810 812 815 816 818 820 821 823 825 826 828 829 830 831 832 833 833 834 836 837 837 838 838 839 840 842 843 844 845 846 847 848 849 849 850 850 851 852 853 854 854
775 773 773 770 762 766 771 766 764 764 765 765 762 764 760 751 746 742 739 739 739 738 739 739 739 741 742 742 746 750 752 755 758 760 761 762 764 768 770 773 776 779 780 783 785 787 789 790 792 794 796 799 801 804 805 807 809 812 814 816 817 819 820 822 824 826 827 829 830 831 831 832 833 834 835 836 837 838 838 839 840 841 843 844 845 846 847 848 848 849 850 850 850 851 852 853 854
772 770 771 768 763 768 770 763 763 763 762 763 766 770 760 746 745 741 735 736 737 736 738 740 740 739 739 740 742 745 747 751 755 757 758 759 761 765 768 771 775 777 779 781 783 785 787 789 791 793 796 799 801 802 804 806 808 812 814 815 817 819 820 822 823 825 826 828 829 830 831 831 832 834 835 836 837 837 838 838 839 841 842 843 844 845 846 847 847 848 849 850 850 851 852 853 854
769 767 767 767 765 766 765 763 768 771 765 759 764 775 761 737 739 740 732 735 737 736 738 739 738 737 738 739 740 742 744 747 750 752 755 757 758 762 766 770 772 775 778 780 782 784 786 788 790 793 796 798 800 801 803 805 808 811 813 814 815 817 819 821 822 823 825 827 828 829 830 831 832 834 835 836 836 837 837 838 839 840 841 842 843 844 845 846 846 847 848 849 850 850 851 852 853
771 762 760 764 763 764 765 766 772 773 766 758 760 772 765 742 737 737 733 735 735 734 738 738 736 736 736 736 737 739 741 744 747 750 753 755 757 760 764 767 770 774 777 780 781 783 785 788 790 792 795 797 799 800 802 804 807 810 811 812 814 815 817 819 821 823 824 826 827 828 829 831 832 833 834 835 836 836 837 837 838 839 840 841 842 843 844 845 845 846 848 849 849 850 851 851 852
770 759 759 763 762 764 766 767 770 764 759 760 757 761 768 756 740 732 733 737 735 734 738 739 738 738 736 736 735 736 739 743 747 751 754 755 756 759 762 766 769 773 776 778 781 783 785 787 789 791 794 796 797 799 800 802 805 807 810 811 813 815 816 818 820 822 824 825 826 828 829 830 832 833 834 835 836 836 837 837 838 839 840 840 841 842 843 844 845 846 847 848 849 849 850 850 850
764 757 761 762 762 764 762 763 766 761 764 769 755 754 770 761 737 730 735 738 735 734 739 742 742 741 740 738 736 735 738 742 746 751 754 755 756 759 762 765 769 772 775 777 779 781 783 785 788 790 792 794 795 797 799 801 803 805 808 810 812 814 816 817 819 821 823 825 826 828 829 830 831 832 834 834 835 836 837 837 838 838 839 840 841 842 843 844 844 845 846 847 849 849 850 850 850
760 759 763 762 762 762 762 763 761 763 777 773 752 752 768 760 736 730 736 738 737 737 740 743 743 742 741 740 738 737 737 741 746 750 753 754 757 760 762 766 770 772 773 776 778 780 782 784 786 788 790 793 794 796 798 800 803 805 807 809 811 813 815 817 819 820 822 824 826 828 829 830 831 833 834 834 835 836 837 837 838 838 839 839 840 841 842 843 843 845 846 847 848 849 849 850 850
759 761 762 762 762 760 762 761 758 770 781 766 748 750 763 764 741 728 736 743 743 742 743 744 744 743 742 742 741 738 738 742 746 750 752 755 759 761 763 767 770 771 773 775 776 778 780 782 784 786 788 791 793 795 798 800 803 805 807 810 811 813 815 816 818 820 822 824 825 827 829 830 831 832 833 834 835 836 836 837 837 838 839 839 840 840 841 842 843 844 845 846 848 848 849 850 850
762 763 761 764 766 765 767 765 768 781 778 758 748 747 759 768 747 729 738 744 742 743 745 747 748 745 742 742 741 740 741 744 747 750 752 756 760 762 764 768 770 771 772 773 775 777 779 780 782 785 787 790 792 794 796 799 802 805 807 810 812 814 815 816 818 820 821 823 825 826 828 829 831 832 833 834 835 835 836 837 837 838 838 839 839 840 841 841 842 843 844 846 847 848 849 849 850
765 764 764 771 773 775 779 775 774 777 767 755 750 751 760 759 741 733 742 744 741 743 745 746 747 745 743 741 741 742 743 746 748 749 752 756 759 760 762 765 770 773 774 773 775 777 778 779 781 783 786 788 791 793 795 798 801 804 807 810 812 814 816 818 819 821 822 823 825 826 827 829 830 831 832 833 834 835 836 837 837 838 838 839 839 840 840 841 842 842 844 845 846 847 848 849 849
765 764 765 771 774 783 788 777 771 769 761 754 751 756 761 750 738 739 742 743 743 742 743 745 746 745 743 741 741 744 744 745 747 750 754 757 759 760 762 763 767 772 775 776 776 777 778 779 781 783 785 787 789 791 794 798 801 803 806 809 812 814 816 818 820 821 823 824 825 826 827 828 830 831 832 833 834 835 836 836 837 837 838 839 840 840 840 841 841 842 843 844 845 846 847 848 848
757 752 752 761 763 773 781 772 767 765 760 758 758 762 760 751 747 743 739 741 741 740 743 746 747 746 744 743 744 746 746 746 749 754 758 759 760 762 763 764 764 765 770 774 776 778 779 780 781 783 785 787 789 792 794 797 800 803 805 807 809 812 815 817 819 821 822 824 825 826 828 829 830 831 832 833 834 835 836 836 836 837 838 839 840 840 840 841 841 842 843 844 845 846 847 847 848
749 743 750 758 750 752 765 768 767 766 764 763 762 757 744 738 744 739 737 742 742 745 749 750 753 750 748 749 748 749 752 752 754 757 759 760 761 762 763 764 764 761 764 768 771 775 778 779 781 784 786 787 788 791 794 796 798 801 804 805 807 810 813 815 817 820 822 823 825 826 828 829 830 831 832 833 834 835 835 836 836 837 838 839 840 840 840 841 841 841 842 843 844 845 846 846 847
750 751 754 748 737 741 759 770 768 770 774 764 755 753 738 732 743 741 739 746 748 752 756 757 758 755 754 756 754 753 755 756 757 758 759 760 761 762 762 763 763 760 761 765 768 772 775 778 781 783 784 786 788 791 794 796 797 800 804 806 808 810 812 815 816 819 821 823 825 826 828 829 830 831 832 833 834 835 835 836 836 837 838 839 840 840 841 840 841 841 841 842 843 844 845 845 846
750 755 747 737 739 744 752 766 770 770 775 763 751 755 746 740 750 749 745 754 757 757 760 761 760 759 760 760 758 758 757 757 758 758 759 759 759 761 762 762 763 761 761 763 767 772 775 778 781 782 784 787 789 790 792 795 797 801 805 807 809 811 813 815 817 819 821 823 825 826 828 829 830 831 832 833 834 834 835 836 836 837 838 839 840 840 841 840 840 841 841 841 842 843 844 844 845
743 747 739 739 755 758 753 764 771 771 775 765 753 754 746 741 753 756 754 759 761 761 763 763 762 762 763 761 760 760 759 759 759 759 760 759 759 759 760 762 763 762 761 762 767 772 776 779 783 785 787 789 789 788 789 794 798 801 805 808 810 812 814 815 817 819 821 822 824 826 827 829 830 831 832 833 833 834 835 835 836 837 838 839 840 840 841 840 840 840 840 841 841 842 842 843 844
742 744 740 739 750 755 752 753 756 762 770 767 760 754 747 747 755 757 756 756 758 762 764 764 763 762 761 761 760 760 760 760 760 760 761 760 759 759 759 761 763 764 763 762 766 773 778 782 784 784 784 786 790 791 793 795 798 801 805 808 810 812 814 815 817 819 821 822 824 826 827 828 829 830 831 832 833 833 834 835 836 837 838 839 840 840 841 840 840 840 840 841 841 841 842 842 843
744 749 749 745 744 745 749 747 742 748 759 762 763 760 754 757 761 757 756 756 757 760 762 764 764 761 760 761 762 762 762 762 761 761 761 761 761 761 761 762 764 766 765 764 767 772 777 781 783 782 782 783 789 792 794 796 798 801 804 807 809 811 813 815 816 819 821 822 825 826 827 828 828 830 830 831 832 833 834 835 836 837 838 839 840 840 840 840 840 840 841 841 841 841 842 842 843
740 744 742 742 742 744 757 759 743 740 748 752 757 761 760 763 763 761 761 759 758 758 760 764 765 764 764 764 764 764 763 763 763 763 762 762 763 764 764 764 765 767 768 766 768 772 776 780 782 783 783 784 788 790 793 795 798 801 804 806 808 810 812 815 817 819 821 823 825 826 827 828 828 829 830 831 832 833 834 835 836 837 838 839 839 840 840 840 840 841 841 841 842 842 842 842 843